O3B FM18

Last updated on Sat Jul 18 2026 00:03:21 GMT+0000 (Coordinated Universal Time)

1 44115U 19020D 26198.44899949 -.00000025 00000+0 00000+0 0 9995 2 44115 0.0531 355.7313 0002743 120.2420 244.0510 5.00115346133165
UTC large
Height (km)
Speed (km/s)
/
Latitude / Longitude
Inclination (degrees)
Orbital Period (minutes)
Azimuth
Elevation
Range (km)
Doppler Factor

Next 0 passes for location: London (51.5072 / 0.1276)

No passes found over London.
O3B FM18